This is the latest recevied weather packets stored in our database for station/object K2CCS. If no packets are shown the sender has not sent any weather packets the latest 10 day(s).
| Time | Temp. | Humidity | Pressure | Rain* | Wind** | Luminosity | Snow |
|---|---|---|---|---|---|---|---|
| 1777417947 | 18.89° C | 42% | 1019.7 hPa | 0 mm | - | 60 W/m² | - |
| 1777417643 | 18.89° C | 42% | 1019.7 hPa | 0 mm | - | 55 W/m² | - |
| 1777417338 | 18.89° C | 42% | 1019.9 hPa | 0 mm | - | 48 W/m² | - |
| 1777417036 | 18.89° C | 43% | 1019.7 hPa | 0 mm | - | 36 W/m² | - |
| 1777416731 | 18.89° C | 41% | 1020 hPa | 0 mm | - | 32 W/m² | - |
| 1777416426 | 18.89° C | 42% | 1019.9 hPa | 0 mm | - | 35 W/m² | - |
| 1777416121 | 18.89° C | 42% | 1020.1 hPa | 0 mm | - | 37 W/m² | - |
| 1777415816 | 18.89° C | 41% | 1019.9 hPa | 0 mm | - | 35 W/m² | - |
| 1777415513 | 18.89° C | 42% | 1020.1 hPa | 0 mm | - | 27 W/m² | - |
| 1777415208 | 19.44° C | 43% | 1020.1 hPa | 0 mm | - | 25 W/m² | - |
| 1777414904 | 19.44° C | 42% | 1020 hPa | 0 mm | - | 26 W/m² | - |
| 1777414603 | 19.44° C | 42% | 1020 hPa | 0 mm | - | 29 W/m² | - |
| 1777414298 | 19.44° C | 42% | 1020.3 hPa | 0 mm | - | 32 W/m² | - |
| 1777413993 | 19.44° C | 41% | 1020 hPa | 0 mm | - | 38 W/m² | - |
| 1777413688 | 19.44° C | 41% | 1020.1 hPa | 0 mm | - | 49 W/m² | - |
| 1777413384 | 19.44° C | 40% | 1020.2 hPa | 0 mm | - | 60 W/m² | - |
| 1777413081 | 20° C | 40% | 1020.4 hPa | 0 mm | - | 67 W/m² | - |
| 1777412776 | 20° C | 39% | 1020.1 hPa | 0 mm | - | 66 W/m² | - |
| 1777412475 | 20° C | 39% | 1020.4 hPa | 0 mm | - | 65 W/m² | - |
| 1777412172 | 20° C | 40% | 1020.2 hPa | 0 mm | - | 65 W/m² | - |
| 1777411869 | 20° C | 40% | 1020.3 hPa | 0 mm | - | 67 W/m² | - |
| 1777411568 | 20.56° C | 40% | 1020.2 hPa | 0 mm | - | 76 W/m² | - |
| 1777411263 | 20.56° C | 39% | 1020.4 hPa | 0 mm | - | 93 W/m² | - |
| 1777410956 | 20.56° C | 40% | 1020.3 hPa | 0 mm | - | 106 W/m² | - |
| 1777410656 | 20.56° C | 40% | 1020.6 hPa | 0 mm | - | 109 W/m² | - |
* Rain latest hour (hover to see other rain measurements)
** Current wind speed in m/s (hover to see current wind gust speed)